TimeCDT,TemperatureF,Dew PointF,Humidity,Sea Level PressureIn,VisibilityMPH,Wind Direction,Wind SpeedMPH,Gust SpeedMPH,PrecipitationIn,Events,Conditions,WindDirDegrees,DateUTC
12:53 AM,71.1,69.1,93,30.04,10.0,SSW,4.6,-,N/A,,Overcast,200,2013-09-12 05:53:00
1:53 AM,70.0,68.0,93,30.05,10.0,Calm,Calm,-,N/A,,Scattered Clouds,0,2013-09-12 06:53:00
2:53 AM,70.0,68.0,93,30.06,10.0,WNW,3.5,-,N/A,,Mostly Cloudy,300,2013-09-12 07:53:00
3:53 AM,70.0,66.9,90,30.06,10.0,West,6.9,-,N/A,,Partly Cloudy,280,2013-09-12 08:53:00
4:53 AM,69.1,66.9,93,30.07,10.0,West,4.6,-,N/A,,Clear,280,2013-09-12 09:53:00
5:53 AM,68.0,66.0,93,30.06,10.0,West,5.8,-,N/A,,Clear,260,2013-09-12 10:53:00
6:53 AM,66.9,64.9,93,30.07,10.0,WNW,6.9,-,N/A,,Clear,290,2013-09-12 11:53:00
7:53 AM,66.9,63.0,87,30.09,10.0,NNW,10.4,-,N/A,,Clear,340,2013-09-12 12:53:00
8:53 AM,69.1,57.0,65,30.09,10.0,North,10.4,-,N/A,,Clear,360,2013-09-12 13:53:00
9:53 AM,73.0,55.0,53,30.11,10.0,North,11.5,-,N/A,,Clear,350,2013-09-12 14:53:00
10:53 AM,75.9,51.1,42,30.13,10.0,North,17.3,-,N/A,,Clear,10,2013-09-12 15:53:00
11:53 AM,79.0,45.0,30,30.12,10.0,NNW,13.8,21.9,N/A,,Clear,340,2013-09-12 16:53:00
12:53 PM,80.1,43.0,27,30.11,10.0,North,18.4,27.6,N/A,,Clear,360,2013-09-12 17:53:00
1:53 PM,81.0,42.1,25,30.10,10.0,North,17.3,26.5,N/A,,Clear,350,2013-09-12 18:53:00
2:53 PM,80.1,43.0,27,30.09,10.0,North,19.6,27.6,N/A,,Clear,350,2013-09-12 19:53:00
3:53 PM,79.0,43.0,28,30.08,10.0,NNW,18.4,28.8,N/A,,Clear,340,2013-09-12 20:53:00
4:53 PM,78.1,44.1,30,30.08,10.0,North,19.6,27.6,N/A,,Clear,350,2013-09-12 21:53:00
5:53 PM,75.9,44.1,32,30.09,10.0,North,18.4,25.3,N/A,,Clear,350,2013-09-12 22:53:00
6:53 PM,72.0,45.0,38,30.10,10.0,North,11.5,-,N/A,,Clear,350,2013-09-12 23:53:00
7:53 PM,63.0,46.9,56,30.12,10.0,NNW,8.1,-,N/A,,Clear,340,2013-09-13 00:53:00
8:53 PM,60.1,46.9,62,30.14,10.0,NNW,9.2,-,N/A,,Clear,340,2013-09-13 01:53:00
9:53 PM,59.0,48.0,67,30.15,10.0,NNW,6.9,-,N/A,,Clear,340,2013-09-13 02:53:00
10:53 PM,57.9,48.0,70,30.15,10.0,North,6.9,-,N/A,,Clear,350,2013-09-13 03:53:00
11:53 PM,55.9,48.0,75,30.15,10.0,NNW,6.9,-,N/A,,Clear,340,2013-09-13 04:53:00